GW4926 Weather Reports


time (UTC)temp
F
wind
direction
speed
knots
gust
knots
rain 1hr
in
rain 24hr
in
rain mn
in
humidity
%
barometer
mb
20260502233504 56 225 0.9 0.9 0.00 0.00 0.06 86 1012.0
20260502233003 56 210 0.0 0.0 0.00 0.00 0.06 86 1012.0
20260502232503 56 0 0.0 0.0 0.00 0.00 0.06 86 1012.0
20260502232003 56 0 0.0 0.0 0.00 0.00 0.06 85 1012.0
20260502231503 56 0 0.0 0.0 0.00 0.00 0.06 85 1012.0
20260502231003 56 0 0.0 0.0 0.00 0.00 0.06 85 1012.0
20260502230504 56 0 0.0 0.0 0.00 0.00 0.06 86 1012.0
20260502230003 56 0 0.0 0.0 0.00 0.00 0.06 87 1012.0
20260502225504 56 228 0.0 0.0 0.00 0.00 0.06 82 1012.0
20260502225004 56 0 0.0 0.0 0.00 0.00 0.06 87 1012.0
20260502224504 56 0 0.0 0.0 0.00 0.00 0.06 87 1012.0
20260502224003 56 166 0.0 0.9 0.00 0.00 0.06 87 1012.0
20260502223503 56 0 0.0 0.0 0.00 0.00 0.06 88 1012.0
20260502223003 56 124 0.0 0.0 0.00 0.00 0.06 87 1012.0
20260502222503 56 0 0.0 0.0 0.00 0.00 0.06 86 1012.0
20260502222004 56 225 0.9 0.9 0.00 0.00 0.06 87 1012.0
20260502221503 56 0 0.0 0.0 0.00 0.00 0.06 86 1012.0
20260502221003 56 0 0.0 0.0 0.00 0.00 0.06 87 1012.0
20260502220503 56 0 0.0 0.0 0.00 0.00 0.06 87 1012.0
20260502220003 56 0 0.0 0.0 0.00 0.00 0.06 86 1012.0
20260502215503 56 220 0.0 0.9 0.00 0.00 0.06 85 1012.0
20260502215003 57 0 0.0 0.0 0.00 0.00 0.06 83 1012.0
20260502214503 57 0 0.0 0.0 0.00 0.00 0.06 85 1012.0
20260502214003 57 0 0.0 0.0 0.00 0.00 0.06 82 1012.0
20260502213503 57 0 0.0 0.0 0.00 0.00 0.06 83 1012.0
20260502213003 57 0 0.0 0.0 0.00 0.00 0.06 81 1012.0
20260502212503 57 0 0.0 0.0 0.00 0.00 0.06 81 1012.0
20260502212003 57 215 0.0 0.0 0.00 0.00 0.06 81 1012.0
20260502211504 57 191 0.0 0.0 0.00 0.00 0.06 78 1012.0
20260502211003 57 0 0.0 0.0 0.00 0.00 0.06 79 1012.0
20260502210503 57 0 0.0 0.0 0.00 0.00 0.06 80 1012.0
20260502210003 56 0 0.0 0.0 0.00 0.00 0.06 79 1012.0
20260502205504 56 0 0.0 0.0 0.00 0.00 0.06 81 1012.0
20260502205004 56 0 0.0 0.0 0.00 0.00 0.06 84 1012.0
20260502204503 56 240 0.0 0.9 0.00 0.00 0.06 82 1012.0
20260502204003 56 236 0.0 0.9 0.00 0.00 0.06 80 1012.0
20260502203503 56 0 0.0 0.0 0.00 0.00 0.06 80 1012.0
20260502203003 57 0 0.0 0.0 0.00 0.00 0.06 82 1012.0
20260502202503 57 0 0.0 0.0 0.00 0.00 0.06 80 1012.0
20260502202004 57 0 0.0 0.0 0.00 0.00 0.06 81 1012.0
20260502201503 58 0 0.0 0.0 0.00 0.00 0.06 77 1012.0
20260502201003 58 0 0.0 0.0 0.00 0.00 0.06 78 1012.0
20260502200503 58 0 0.0 0.0 0.00 0.00 0.06 77 1012.0
20260502200004 58 172 0.0 0.0 0.00 0.00 0.06 77 1012.0
20260502195504 57 187 0.0 0.9 0.00 0.00 0.06 82 1012.0
20260502195003 57 0 0.0 0.0 0.00 0.00 0.06 82 1012.0
20260502194504 57 0 0.0 0.0 0.00 0.00 0.06 81 1012.0
20260502194003 57 0 0.0 0.0 0.00 0.00 0.06 84 1012.0
20260502193504 57 47 0.0 0.0 0.00 0.00 0.06 83 1012.0
20260502193003 57 48 0.0 0.9 0.00 0.00 0.06 82 1012.0
20260502192503 57 0 0.0 0.0 0.00 0.00 0.06 83 1012.0
20260502192005 57 82 0.0 0.0 0.00 0.00 0.06 84 1012.0
20260502191504 57 0 0.0 0.0 0.00 0.00 0.06 79 1012.0
20260502191003 57 170 0.0 0.0 0.00 0.00 0.06 81 1012.0
20260502190504 57 225 0.0 0.9 0.00 0.00 0.06 82 1012.0
20260502190004 57 0 0.0 0.0 0.00 0.00 0.06 79 1012.0
20260502185503 57 0 0.0 0.0 0.00 0.00 0.06 79 1012.0
20260502185003 57 318 0.0 0.9 0.00 0.00 0.06 84 1013.0
20260502184503 57 0 0.0 0.0 0.00 0.00 0.06 84 1013.0
20260502184003 56 220 0.0 0.9 0.00 0.00 0.06 81 1013.0
20260502183503 56 0 0.0 0.0 0.00 0.00 0.06 83 1013.0
20260502183004 56 0 0.0 0.0 0.00 0.00 0.06 83 1013.0
20260502182504 56 0 0.0 0.0 0.00 0.00 0.06 83 1013.0
20260502182003 56 0 0.0 0.0 0.00 0.00 0.06 85 1013.0
20260502181503 56 173 0.0 0.9 0.00 0.00 0.06 84 1013.0
20260502181003 56 0 0.0 0.0 0.00 0.00 0.06 86 1013.0
20260502180504 56 140 0.0 0.0 0.00 0.00 0.06 87 1013.0
20260502170503 55 0 0.0 0.0 0.00 0.00 0.06 87 1013.0
20260502164005 55 197 0.9 0.9 0.00 0.00 0.06 89 1014.0
20260502163503 55 0 0.0 0.0 0.00 0.00 0.06 90 1014.0
20260502163003 55 0 0.0 0.0 0.00 0.00 0.06 88 1014.0
20260502162503 55 0 0.0 0.0 0.00 0.00 0.06 88 1014.0
20260502162003 55 96 0.9 0.9 0.00 0.00 0.05 91 1014.0
20260502161504 55 0 0.0 0.0 0.00 0.00 0.05 89 1014.0
20260502161004 55 27 0.0 0.0 0.00 0.00 0.05 91 1014.0
20260502160504 55 0 0.0 0.0 0.00 0.00 0.05 91 1014.0
20260502152003 55 0 0.0 0.0 0.00 0.00 0.05 94 1014.0
20260502151504 55 217 0.0 0.9 0.00 0.00 0.05 94 1014.0
20260502151003 55 0 0.0 0.0 0.00 0.00 0.05 94 1014.0
20260502150503 54 0 0.0 0.0 0.01 0.00 0.05 94 1014.0
20260502130505 52 0 0.0 0.0 0.00 0.00 0.02 94 1013.0
20260502123503 52 0 0.0 0.0 0.00 0.00 0.04 95 1013.0
20260502123003 52 0 0.0 0.0 0.00 0.00 0.04 95 1013.0
20260502122504 52 0 0.0 0.0 0.00 0.00 0.04 95 1013.0
20260502122003 52 0 0.0 0.0 0.00 0.00 0.03 95 1013.0
20260502121504 52 0 0.0 0.0 0.00 0.00 0.03 95 1013.0
20260502121006 52 0 0.0 0.0 0.00 0.00 0.03 95 1013.0
20260502120503 52 0 0.0 0.0 0.01 0.00 0.03 95 1013.0
20260502115503 52 0 0.0 0.0 0.00 0.00 0.03 95 1013.0
20260502115003 52 0 0.0 0.0 0.03 0.00 0.02 95 1013.0
20260502114503 52 63 0.0 0.0 0.01 0.00 0.02 95 1013.0
20260502114004 52 0 0.0 0.0 0.00 0.00 0.02 95 1013.0
20260502113504 52 0 0.0 0.0 0.00 0.00 0.02 95 1013.0
20260502113004 52 0 0.0 0.0 0.01 0.00 0.02 95 1013.0
20260502112503 52 0 0.0 0.0 0.00 0.00 0.02 95 1013.0
20260502112003 52 0 0.0 0.0 0.01 0.00 0.02 95 1013.0
20260502111503 52 0 0.0 0.0 0.01 0.00 0.02 95 1013.0
20260502111003 52 0 0.0 0.0 0.01 0.00 0.02 95 1013.0
20260502110505 52 0 0.0 0.0 0.01 0.00 0.01 95 1013.0
20260502110003 52 0 0.0 0.0 0.00 0.00 0.01 95 1013.0
20260502105503 52 0 0.0 0.0 0.02 0.00 0.01 95 1013.0
20260502105004 52 0 0.0 0.0 0.01 0.00 0.01 95 1013.0
20260502104503 52 0 0.0 0.0 0.01 0.00 0.01 95 1013.0
20260502104003 52 0 0.0 0.0 0.01 0.00 0.01 95 1013.0
20260502103504 52 0 0.0 0.0 0.01 0.00 0.00 94 1013.0
20260502103003 52 232 0.0 0.0 0.01 0.00 0.00 94 1013.0
20260502102503 52 0 0.0 0.0 0.01 0.00 0.00 94 1013.0
20260502102004 52 0 0.0 0.0 0.00 0.00 0.00 94 1013.0
20260502101504 52 0 0.0 0.0 0.00 0.00 0.00 93 1013.0
20260502101004 52 0 0.0 0.0 0.00 0.00 0.00 94 1013.0
20260502100503 52 27 0.0 0.0 0.00 0.00 0.00 94 1013.0
20260502091504 52 0 0.0 0.0 0.00 0.00 0.00 94 1013.0
20260502091003 52 0 0.0 0.0 0.00 0.00 0.00 94 1013.0
20260502090504 52 0 0.0 0.0 0.00 0.00 0.00 94 1013.0
20260502071503 52 65 0.9 0.9 0.00 0.00 0.00 95 1012.0
20260502071004 52 49 0.0 0.9 0.00 0.00 0.00 95 1012.0
20260502070503 52 0 0.0 0.0 0.00 0.00 0.00 95 1012.0
20260502070004 52 0 0.0 0.0 0.00 0.00 0.00 95 1012.0
20260502065504 52 0 0.0 0.0 0.00 0.00 0.00 95 1012.0
20260502065003 52 0 0.0 0.0 0.00 0.00 0.00 95 1012.0
20260502064504 52 0 0.0 0.0 0.00 0.00 0.00 95 1012.0
20260502064003 52 0 0.0 0.0 0.00 0.00 0.00 95 1012.0
20260502063504 52 0 0.0 0.0 0.00 0.00 0.00 95 1012.0
20260502063003 52 0 0.0 0.0 0.00 0.00 0.00 95 1012.0
20260502062503 52 0 0.0 0.0 0.00 0.00 0.00 95 1012.0
20260502062003 52 0 0.0 0.0 0.00 0.00 0.00 95 1012.0
20260502061504 52 111 0.0 0.0 0.00 0.00 0.00 95 1012.0
20260502061003 52 0 0.0 0.0 0.00 0.00 0.00 95 1012.0
20260502060503 52 0 0.0 0.0 0.00 0.00 0.00 94 1012.0
20260502060004 52 0 0.0 0.0 0.00 0.00 0.00 94 1013.0
20260502055503 52 0 0.0 0.0 0.00 0.00 0.00 94 1012.0
20260502055003 52 0 0.0 0.0 0.00 0.00 0.00 94 1012.0
20260502054503 52 0 0.0 0.0 0.00 0.00 0.00 94 1013.0
20260502054004 52 0 0.0 0.0 0.00 0.00 0.00 94 1013.0
20260502053503 52 0 0.0 0.0 0.00 0.00 0.00 94 1013.0
20260502053004 52 0 0.0 0.0 0.00 0.00 0.00 94 1013.0
20260502052503 52 0 0.0 0.0 0.00 0.00 0.00 94 1013.0
20260502052003 52 0 0.0 0.0 0.00 0.00 0.00 94 1013.0
20260502051504 52 0 0.0 0.0 0.00 0.00 0.00 94 1013.0
20260502051004 52 0 0.0 0.0 0.00 0.00 0.00 94 1013.0
20260502050504 52 0 0.0 0.0 0.00 0.00 0.00 94 1013.0
20260502050005 52 0 0.0 0.0 0.00 0.00 0.00 94 1013.0
20260502045052 52 0 0.0 0.0 0.00 0.00 0.00 94 1013.0
20260502044504 52 0 0.0 0.0 0.00 0.00 0.00 94 1013.0
20260502044003 52 0 0.0 0.0 0.00 0.00 0.00 94 1013.0
20260502043505 52 0 0.0 0.0 0.00 0.00 0.00 94 1013.0
20260502043005 52 0 0.0 0.0 0.00 0.00 0.00 94 1013.0
20260502042503 52 0 0.0 0.0 0.00 0.00 0.00 93 1013.0
20260502042003 52 0 0.0 0.0 0.00 0.00 0.00 93 1013.0
20260502041504 52 0 0.0 0.0 0.00 0.00 0.00 93 1013.0
20260502041003 52 0 0.0 0.0 0.00 0.00 0.00 93 1013.0
20260502040504 52 0 0.0 0.0 0.00 0.00 0.00 93 1013.0
20260502040004 52 0 0.0 0.0 0.00 0.00 0.00 93 1013.0
20260502035503 52 0 0.0 0.0 0.00 0.00 0.00 93 1013.0
20260502035004 52 0 0.0 0.0 0.00 0.00 0.00 93 1013.0
20260502034503 52 0 0.0 0.0 0.00 0.00 0.00 93 1013.0
20260502034003 52 0 0.0 0.0 0.00 0.00 0.00 92 1013.0
20260502033504 52 52 0.0 0.9 0.00 0.00 0.00 92 1013.0
20260502033003 52 0 0.0 0.0 0.00 0.00 0.00 92 1013.0
20260502032503 52 0 0.0 0.0 0.00 0.00 0.00 92 1013.0
20260502032004 52 0 0.0 0.0 0.00 0.00 0.00 92 1013.0
20260502031503 53 0 0.0 0.0 0.00 0.00 0.00 92 1013.0
20260502031003 53 0 0.0 0.0 0.00 0.00 0.00 92 1013.0
20260502030508 53 0 0.0 0.0 0.00 0.00 0.00 91 1013.0
20260502030003 53 0 0.0 0.0 0.00 0.00 0.00 91 1014.0
20260502025503 53 0 0.0 0.0 0.00 0.00 0.00 91 1014.0
20260502025003 53 0 0.0 0.0 0.00 0.00 0.00 91 1014.0
20260502024504 53 0 0.0 0.0 0.00 0.00 0.00 91 1014.0
20260502024004 53 0 0.0 0.0 0.00 0.00 0.00 91 1014.0
20260502023503 53 0 0.0 0.0 0.00 0.00 0.00 90 1014.0
20260502023003 53 0 0.0 0.0 0.00 0.00 0.00 90 1014.0
20260502022504 53 0 0.0 0.0 0.00 0.00 0.00 90 1014.0
20260502022003 53 0 0.0 0.0 0.00 0.00 0.00 90 1014.0
20260502021503 53 0 0.0 0.0 0.00 0.00 0.00 90 1014.0
20260502021004 53 0 0.0 0.0 0.00 0.00 0.00 89 1014.0
20260502020503 53 0 0.0 0.0 0.00 0.00 0.00 89 1014.0
20260502020003 53 0 0.0 0.0 0.00 0.00 0.00 89 1014.0
20260502015503 53 0 0.0 0.0 0.00 0.00 0.00 89 1014.0
20260502015004 53 0 0.0 0.0 0.00 0.00 0.00 89 1014.0
20260502014504 53 0 0.0 0.0 0.00 0.00 0.00 89 1014.0
20260502014004 53 0 0.0 0.0 0.00 0.00 0.00 89 1014.0
20260502013503 53 0 0.0 0.0 0.00 0.00 0.00 89 1014.0
20260502013003 53 0 0.0 0.0 0.00 0.00 0.00 88 1014.0
20260502012503 53 0 0.0 0.0 0.00 0.00 0.00 88 1013.0
20260502012003 53 0 0.0 0.0 0.00 0.00 0.00 88 1013.0
20260502011504 53 0 0.0 0.0 0.00 0.00 0.00 88 1014.0
20260502011003 53 0 0.0 0.0 0.00 0.00 0.00 88 1014.0
20260502010504 53 0 0.0 0.0 0.00 0.00 0.00 87 1014.0
20260502010004 53 0 0.0 0.0 0.00 0.00 0.00 87 1013.0
20260502005504 53 0 0.0 0.0 0.00 0.00 0.00 87 1013.0
20260502005004 53 0 0.0 0.0 0.00 0.00 0.00 86 1013.0
20260502004503 54 0 0.0 0.0 0.00 0.00 0.00 86 1013.0
20260502004003 54 38 0.0 0.9 0.00 0.00 0.00 85 1013.0
20260502003503 54 61 0.0 0.0 0.00 0.00 0.00 84 1013.0
20260502003004 54 0 0.0 0.0 0.00 0.00 0.00 84 1013.0
20260502002503 54 0 0.0 0.0 0.00 0.00 0.00 84 1013.0
20260502002004 55 0 0.0 0.0 0.00 0.00 0.00 83 1013.0
20260502001504 55 0 0.0 0.0 0.00 0.00 0.00 83 1013.0
20260502001005 55 0 0.0 0.0 0.00 0.00 0.00 81 1013.0
20260502000503 55 0 0.0 0.0 0.00 0.00 0.00 81 1013.0
20260502000004 55 0 0.0 0.0 0.00 0.00 0.00 81 1013.0
20260501235503 55 0 0.0 0.0 0.00 0.00 0.00 81 1013.0
20260501235003 56 0 0.0 0.0 0.00 0.00 0.00 81 1013.0
20260501234508 56 233 0.9 0.9 0.00 0.00 0.00 79 1013.0
20260501234003 56 205 0.9 0.9 0.00 0.00 0.00 79 1013.0